owner,sensor,date,latitude,longitude,air_temperature,qcFlag 
DISL,ioos:station:DISL:MBLA:1,2017-07-01T00:00:00Z,30.4367,-88.0117,28.11,1111122 
DISL,ioos:station:DISL:MBLA:1,2017-07-01T00:30:00Z,30.4367,-88.0117,28.05,1111122 
DISL,ioos:station:DISL:MBLA:1,2017-07-01T01:00:00Z,30.4367,-88.0117,28.02,1111122 
DISL,ioos:station:DISL:MBLA:1,2017-07-01T01:30:00Z,30.4367,-88.0117,27.92,1111122 
DISL,ioos:station:DISL:MBLA:1,2017-07-01T02:00:00Z,30.4367,-88.0117,27.68,1111122 
DISL,ioos:station:DISL:MBLA:1,2017-07-01T02:30:00Z,30.4367,-88.0117,27.79,1111122 
DISL,ioos:station:DISL:MBLA:1,2017-07-01T03:00:00Z,30.4367,-88.0117,27.51,1111122 
DISL,ioos:station:DISL:MBLA:1,2017-07-01T03:30:00Z,30.4367,-88.0117,27.45,1111122 
DISL,ioos:station:DISL:MBLA:1,2017-07-01T04:00:00Z,30.4367,-88.0117,27.48,1111122 
DISL,ioos:station:DISL:MBLA:1,2017-07-01T04:30:00Z,30.4367,-88.0117,27.48,1111122 
DISL,ioos:station:DISL:MBLA:1,2017-07-01T05:00:00Z,30.4367,-88.0117,27.45,1111122 
DISL,ioos:station:DISL:MBLA:1,2017-07-01T05:30:00Z,30.4367,-88.0117,27.41,1111122 
DISL,ioos:station:DISL:MBLA:1,2017-07-01T06:00:00Z,30.4367,-88.0117,27.65,1111122 
DISL,ioos:station:DISL:MBLA:1,2017-07-01T06:30:00Z,30.4367,-88.0117,27.68,1111122 
DISL,ioos:station:DISL:MBLA:1,2017-07-01T07:00:00Z,30.4367,-88.0117,27.51,1111122 
DISL,ioos:station:DISL:MBLA:1,2017-07-01T07:30:00Z,30.4367,-88.0117,27.62,1111122 
DISL,ioos:station:DISL:MBLA:1,2017-07-01T08:00:00Z,30.4367,-88.0117,27.58,1111122 
DISL,ioos:station:DISL:MBLA:1,2017-07-01T08:30:00Z,30.4367,-88.0117,27.62,1111122 
DISL,ioos:station:DISL:MBLA:1,2017-07-01T09:00:00Z,30.4367,-88.0117,27.48,1111122 
DISL,ioos:station:DISL:MBLA:1,2017-07-01T09:30:00Z,30.4367,-88.0117,27.41,1111122 
DISL,ioos:station:DISL:MBLA:1,2017-07-01T10:00:00Z,30.4367,-88.0117,27.34,1111122 
DISL,ioos:station:DISL:MBLA:1,2017-07-01T10:30:00Z,30.4367,-88.0117,26.53,1111122 
DISL,ioos:station:DISL:MBLA:1,2017-07-01T11:00:00Z,30.4367,-88.0117,26.6,1111122 
DISL,ioos:station:DISL:MBLA:1,2017-07-01T11:30:00Z,30.4367,-88.0117,26.36,1111122 
DISL,ioos:station:DISL:MBLA:1,2017-07-01T12:00:00Z,30.4367,-88.0117,26.26,1111122 
DISL,ioos:station:DISL:MBLA:1,2017-07-01T12:30:00Z,30.4367,-88.0117,26.56,1111122 
DISL,ioos:station:DISL:MBLA:1,2017-07-01T13:00:00Z,30.4367,-88.0117,28.4,1111122 
DISL,ioos:station:DISL:MBLA:1,2017-07-01T13:30:00Z,30.4367,-88.0117,28.29,1111122 
DISL,ioos:station:DISL:MBLA:1,2017-07-01T14:00:00Z,30.4367,-88.0117,27.74,1111122 
DISL,ioos:station:DISL:MBLA:1,2017-07-01T14:30:00Z,30.4367,-88.0117,28.18,1111122 
DISL,ioos:station:DISL:MBLA:1,2017-07-01T15:00:00Z,30.4367,-88.0117,23.85,1111122 
DISL,ioos:station:DISL:MBLA:1,2017-07-01T15:30:00Z,30.4367,-88.0117,23.25,1111122 
DISL,ioos:station:DISL:MBLA:1,2017-07-01T16:00:00Z,30.4367,-88.0117,23.77,1111122 
DISL,ioos:station:DISL:MBLA:1,2017-07-01T16:30:00Z,30.4367,-88.0117,24.76,1111122 
DISL,ioos:station:DISL:MBLA:1,2017-07-01T17:00:00Z,30.4367,-88.0117,25.04,1111122 
DISL,ioos:station:DISL:MBLA:1,2017-07-01T17:30:00Z,30.4367,-88.0117,25.99,1111122 
DISL,ioos:station:DISL:MBLA:1,2017-07-01T18:00:00Z,30.4367,-88.0117,26.12,1111122 
DISL,ioos:station:DISL:MBLA:1,2017-07-01T18:30:00Z,30.4367,-88.0117,26.94,1111122 
DISL,ioos:station:DISL:MBLA:1,2017-07-01T19:00:00Z,30.4367,-88.0117,27.18,1111122 
DISL,ioos:station:DISL:MBLA:1,2017-07-01T19:30:00Z,30.4367,-88.0117,27.78,1111122 
DISL,ioos:station:DISL:MBLA:1,2017-07-01T20:00:00Z,30.4367,-88.0117,28.02,1111122 
DISL,ioos:station:DISL:MBLA:1,2017-07-01T20:30:00Z,30.4367,-88.0117,28.28,1111122 
DISL,ioos:station:DISL:MBLA:1,2017-07-01T21:00:00Z,30.4367,-88.0117,28.25,1111122 
DISL,ioos:station:DISL:MBLA:1,2017-07-01T21:30:00Z,30.4367,-88.0117,28.24,1111122 
DISL,ioos:station:DISL:MBLA:1,2017-07-01T22:00:00Z,30.4367,-88.0117,28.31,1111122 
DISL,ioos:station:DISL:MBLA:1,2017-07-01T22:30:00Z,30.4367,-88.0117,28.44,1111122 
DISL,ioos:station:DISL:MBLA:1,2017-07-01T23:00:00Z,30.4367,-88.0117,28.3,1111122 
DISL,ioos:station:DISL:MBLA:1,2017-07-01T23:30:00Z,30.4367,-88.0117,28.58,1111122 
DISL,ioos:station:DISL:MBLA:1,2017-07-02T00:00:00Z,30.4367,-88.0117,28.58,1111122 
DISL,ioos:station:DISL:MBLA:1,2017-07-02T00:30:00Z,30.4367,-88.0117,28.62,1111122 
DISL,ioos:station:DISL:MBLA:1,2017-07-02T01:00:00Z,30.4367,-88.0117,28.45,1111122 
DISL,ioos:station:DISL:MBLA:1,2017-07-02T01:30:00Z,30.4367,-88.0117,28.29,1111122 
DISL,ioos:station:DISL:MBLA:1,2017-07-02T02:00:00Z,30.4367,-88.0117,28.22,1111122 
DISL,ioos:station:DISL:MBLA:1,2017-07-02T02:30:00Z,30.4367,-88.0117,28.5,1111122 
DISL,ioos:station:DISL:MBLA:1,2017-07-02T03:00:00Z,30.4367,-88.0117,28.29,1111122 
DISL,ioos:station:DISL:MBLA:1,2017-07-02T03:30:00Z,30.4367,-88.0117,28.33,1111122 
DISL,ioos:station:DISL:MBLA:1,2017-07-02T04:00:00Z,30.4367,-88.0117,28.29,1111122 
DISL,ioos:station:DISL:MBLA:1,2017-07-02T04:30:00Z,30.4367,-88.0117,27.99,1111122 
DISL,ioos:station:DISL:MBLA:1,2017-07-02T05:00:00Z,30.4367,-88.0117,27.92,1111122 
DISL,ioos:station:DISL:MBLA:1,2017-07-02T05:30:00Z,30.4367,-88.0117,26.6,1111122 
DISL,ioos:station:DISL:MBLA:1,2017-07-02T06:00:00Z,30.4367,-88.0117,25.92,1111122 
DISL,ioos:station:DISL:MBLA:1,2017-07-02T06:30:00Z,30.4367,-88.0117,25.48,1111122 
DISL,ioos:station:DISL:MBLA:1,2017-07-02T07:00:00Z,30.4367,-88.0117,25.62,1111122 
DISL,ioos:station:DISL:MBLA:1,2017-07-02T07:30:00Z,30.4367,-88.0117,25.75,1111122 
DISL,ioos:station:DISL:MBLA:1,2017-07-02T08:00:00Z,30.4367,-88.0117,25.95,1111122 
DISL,ioos:station:DISL:MBLA:1,2017-07-02T08:30:00Z,30.4367,-88.0117,25.85,1111122 
DISL,ioos:station:DISL:MBLA:1,2017-07-02T09:00:00Z,30.4367,-88.0117,25.85,1111122 
DISL,ioos:station:DISL:MBLA:1,2017-07-02T09:30:00Z,30.4367,-88.0117,26.02,1111122 
DISL,ioos:station:DISL:MBLA:1,2017-07-02T10:00:00Z,30.4367,-88.0117,26.29,1111122 
DISL,ioos:station:DISL:MBLA:1,2017-07-02T10:30:00Z,30.4367,-88.0117,26.63,1111122 
DISL,ioos:station:DISL:MBLA:1,2017-07-02T11:00:00Z,30.4367,-88.0117,27.11,1111122 
DISL,ioos:station:DISL:MBLA:1,2017-07-02T11:30:00Z,30.4367,-88.0117,27.07,1111122 
DISL,ioos:station:DISL:MBLA:1,2017-07-02T12:00:00Z,30.4367,-88.0117,27.24,1111122 
DISL,ioos:station:DISL:MBLA:1,2017-07-02T12:30:00Z,30.4367,-88.0117,27.11,1111122 
DISL,ioos:station:DISL:MBLA:1,2017-07-02T13:00:00Z,30.4367,-88.0117,27.45,1111122 
DISL,ioos:station:DISL:MBLA:1,2017-07-02T13:30:00Z,30.4367,-88.0117,28.26,1111122 
DISL,ioos:station:DISL:MBLA:1,2017-07-02T14:00:00Z,30.4367,-88.0117,28.01,1111122 
DISL,ioos:station:DISL:MBLA:1,2017-07-02T14:30:00Z,30.4367,-88.0117,28.04,1111122 
DISL,ioos:station:DISL:MBLA:1,2017-07-02T15:00:00Z,30.4367,-88.0117,28.55,1111122 
DISL,ioos:station:DISL:MBLA:1,2017-07-02T15:30:00Z,30.4367,-88.0117,28.37,1111122 
DISL,ioos:station:DISL:MBLA:1,2017-07-02T16:00:00Z,30.4367,-88.0117,30.74,1111122 
DISL,ioos:station:DISL:MBLA:1,2017-07-02T16:30:00Z,30.4367,-88.0117,30.85,1111122 
DISL,ioos:station:DISL:MBLA:1,2017-07-02T17:00:00Z,30.4367,-88.0117,30.95,1111122 
DISL,ioos:station:DISL:MBLA:1,2017-07-02T17:30:00Z,30.4367,-88.0117,31.59,1111122 
DISL,ioos:station:DISL:MBLA:1,2017-07-02T18:00:00Z,30.4367,-88.0117,30.71,1111122 
DISL,ioos:station:DISL:MBLA:1,2017-07-02T18:30:00Z,30.4367,-88.0117,29.89,1111122 
DISL,ioos:station:DISL:MBLA:1,2017-07-02T19:00:00Z,30.4367,-88.0117,29.83,1111122 
DISL,ioos:station:DISL:MBLA:1,2017-07-02T19:30:00Z,30.4367,-88.0117,29.15,1111122 
DISL,ioos:station:DISL:MBLA:1,2017-07-02T20:00:00Z,30.4367,-88.0117,28.81,1111122 
DISL,ioos:station:DISL:MBLA:1,2017-07-02T20:30:00Z,30.4367,-88.0117,29.05,1111122 
DISL,ioos:station:DISL:MBLA:1,2017-07-02T21:00:00Z,30.4367,-88.0117,28.95,1111122 
DISL,ioos:station:DISL:MBLA:1,2017-07-02T21:30:00Z,30.4367,-88.0117,29.05,1111122 
DISL,ioos:station:DISL:MBLA:1,2017-07-02T22:00:00Z,30.4367,-88.0117,29.12,1111122 
DISL,ioos:station:DISL:MBLA:1,2017-07-02T22:30:00Z,30.4367,-88.0117,29.25,1111122 
DISL,ioos:station:DISL:MBLA:1,2017-07-02T23:00:00Z,30.4367,-88.0117,29.39,1111122 
DISL,ioos:station:DISL:MBLA:1,2017-07-02T23:30:00Z,30.4367,-88.0117,29.69,1111122 
DISL,ioos:station:DISL:MBLA:1,2017-07-03T00:00:00Z,30.4367,-88.0117,29.42,1111122 
DISL,ioos:station:DISL:MBLA:1,2017-07-03T00:30:00Z,30.4367,-88.0117,29.25,1111122 
DISL,ioos:station:DISL:MBLA:1,2017-07-03T01:00:00Z,30.4367,-88.0117,29.09,1111122 
DISL,ioos:station:DISL:MBLA:1,2017-07-03T01:30:00Z,30.4367,-88.0117,28.89,1111122 
DISL,ioos:station:DISL:MBLA:1,2017-07-03T02:00:00Z,30.4367,-88.0117,28.96,1111122 
DISL,ioos:station:DISL:MBLA:1,2017-07-03T02:30:00Z,30.4367,-88.0117,28.69,1111122 
DISL,ioos:station:DISL:MBLA:1,2017-07-03T03:00:00Z,30.4367,-88.0117,28.69,1111122 
DISL,ioos:station:DISL:MBLA:1,2017-07-03T03:30:00Z,30.4367,-88.0117,28.63,1111122 
DISL,ioos:station:DISL:MBLA:1,2017-07-03T04:00:00Z,30.4367,-88.0117,28.49,1111122 
DISL,ioos:station:DISL:MBLA:1,2017-07-03T04:30:00Z,30.4367,-88.0117,28.36,1111122 
DISL,ioos:station:DISL:MBLA:1,2017-07-03T05:00:00Z,30.4367,-88.0117,28.26,1111122 
DISL,ioos:station:DISL:MBLA:1,2017-07-03T05:30:00Z,30.4367,-88.0117,28.12,1111122 
DISL,ioos:station:DISL:MBLA:1,2017-07-03T06:00:00Z,30.4367,-88.0117,28.09,1111122 
DISL,ioos:station:DISL:MBLA:1,2017-07-03T06:30:00Z,30.4367,-88.0117,27.79,1111122 
DISL,ioos:station:DISL:MBLA:1,2017-07-03T07:00:00Z,30.4367,-88.0117,27.75,1111122 
DISL,ioos:station:DISL:MBLA:1,2017-07-03T07:30:00Z,30.4367,-88.0117,27.82,1111122 
DISL,ioos:station:DISL:MBLA:1,2017-07-03T08:00:00Z,30.4367,-88.0117,27.75,1111122 
DISL,ioos:station:DISL:MBLA:1,2017-07-03T08:30:00Z,30.4367,-88.0117,27.79,1111122 
DISL,ioos:station:DISL:MBLA:1,2017-07-03T09:00:00Z,30.4367,-88.0117,27.55,1111122 
DISL,ioos:station:DISL:MBLA:1,2017-07-03T09:30:00Z,30.4367,-88.0117,27.38,1111122 
DISL,ioos:station:DISL:MBLA:1,2017-07-03T10:00:00Z,30.4367,-88.0117,27.31,1111122 
DISL,ioos:station:DISL:MBLA:1,2017-07-03T10:30:00Z,30.4367,-88.0117,27.14,1111122 
DISL,ioos:station:DISL:MBLA:1,2017-07-03T11:00:00Z,30.4367,-88.0117,27.21,1111122 
DISL,ioos:station:DISL:MBLA:1,2017-07-03T11:30:00Z,30.4367,-88.0117,26.84,1111122 
DISL,ioos:station:DISL:MBLA:1,2017-07-03T12:00:00Z,30.4367,-88.0117,27.48,1111122 
DISL,ioos:station:DISL:MBLA:1,2017-07-03T12:30:00Z,30.4367,-88.0117,28.26,1111122 
DISL,ioos:station:DISL:MBLA:1,2017-07-03T13:00:00Z,30.4367,-88.0117,28.63,1111122 
DISL,ioos:station:DISL:MBLA:1,2017-07-03T13:30:00Z,30.4367,-88.0117,28.83,1111122 
DISL,ioos:station:DISL:MBLA:1,2017-07-03T14:00:00Z,30.4367,-88.0117,28.96,1111122 
DISL,ioos:station:DISL:MBLA:1,2017-07-03T14:30:00Z,30.4367,-88.0117,29.69,1111122 
DISL,ioos:station:DISL:MBLA:1,2017-07-03T15:00:00Z,30.4367,-88.0117,29.86,1111122 
DISL,ioos:station:DISL:MBLA:1,2017-07-03T15:30:00Z,30.4367,-88.0117,30.4,1111122 
DISL,ioos:station:DISL:MBLA:1,2017-07-03T16:00:00Z,30.4367,-88.0117,30.47,1111122 
DISL,ioos:station:DISL:MBLA:1,2017-07-03T16:30:00Z,30.4367,-88.0117,30.34,1111122 
DISL,ioos:station:DISL:MBLA:1,2017-07-03T17:00:00Z,30.4367,-88.0117,30.44,1111122 
DISL,ioos:station:DISL:MBLA:1,2017-07-03T17:30:00Z,30.4367,-88.0117,30.24,1111122 
DISL,ioos:station:DISL:MBLA:1,2017-07-03T18:00:00Z,30.4367,-88.0117,29.46,1111122 
DISL,ioos:station:DISL:MBLA:1,2017-07-03T18:30:00Z,30.4367,-88.0117,29.8,1111122 
DISL,ioos:station:DISL:MBLA:1,2017-07-03T19:00:00Z,30.4367,-88.0117,29.73,1111122 
DISL,ioos:station:DISL:MBLA:1,2017-07-03T19:30:00Z,30.4367,-88.0117,29.69,1111122 
DISL,ioos:station:DISL:MBLA:1,2017-07-03T20:00:00Z,30.4367,-88.0117,29.86,1111122 
DISL,ioos:station:DISL:MBLA:1,2017-07-03T20:30:00Z,30.4367,-88.0117,29.59,1111122 
DISL,ioos:station:DISL:MBLA:1,2017-07-03T21:00:00Z,30.4367,-88.0117,30.0,1111122 
DISL,ioos:station:DISL:MBLA:1,2017-07-03T21:30:00Z,30.4367,-88.0117,30.03,1111122 
DISL,ioos:station:DISL:MBLA:1,2017-07-03T22:00:00Z,30.4367,-88.0117,30.1,1111122 
DISL,ioos:station:DISL:MBLA:1,2017-07-03T22:30:00Z,30.4367,-88.0117,30.3,1111122 
DISL,ioos:station:DISL:MBLA:1,2017-07-03T23:00:00Z,30.4367,-88.0117,30.44,1111122 
DISL,ioos:station:DISL:MBLA:1,2017-07-03T23:30:00Z,30.4367,-88.0117,30.17,1111122 
DISL,ioos:station:DISL:MBLA:1,2017-07-04T00:00:00Z,30.4367,-88.0117,30.13,1111122 
DISL,ioos:station:DISL:MBLA:1,2017-07-04T00:30:00Z,30.4367,-88.0117,29.93,1111122 
DISL,ioos:station:DISL:MBLA:1,2017-07-04T01:00:00Z,30.4367,-88.0117,29.63,1111122 
DISL,ioos:station:DISL:MBLA:1,2017-07-04T01:30:00Z,30.4367,-88.0117,29.59,1111122 
DISL,ioos:station:DISL:MBLA:1,2017-07-04T02:00:00Z,30.4367,-88.0117,29.43,1111122 
DISL,ioos:station:DISL:MBLA:1,2017-07-04T02:30:00Z,30.4367,-88.0117,29.46,1111122 
DISL,ioos:station:DISL:MBLA:1,2017-07-04T03:00:00Z,30.4367,-88.0117,29.3,1111122 
DISL,ioos:station:DISL:MBLA:1,2017-07-04T03:30:00Z,30.4367,-88.0117,28.89,1111122 
DISL,ioos:station:DISL:MBLA:1,2017-07-04T04:00:00Z,30.4367,-88.0117,28.66,1111122 
DISL,ioos:station:DISL:MBLA:1,2017-07-04T04:30:00Z,30.4367,-88.0117,28.63,1111122 
DISL,ioos:station:DISL:MBLA:1,2017-07-04T05:00:00Z,30.4367,-88.0117,28.73,1111122 
DISL,ioos:station:DISL:MBLA:1,2017-07-04T05:30:00Z,30.4367,-88.0117,28.77,1111122 
DISL,ioos:station:DISL:MBLA:1,2017-07-04T06:00:00Z,30.4367,-88.0117,28.87,1111122 
DISL,ioos:station:DISL:MBLA:1,2017-07-04T06:30:00Z,30.4367,-88.0117,28.77,1111122 
DISL,ioos:station:DISL:MBLA:1,2017-07-04T07:00:00Z,30.4367,-88.0117,28.77,1111122 
DISL,ioos:station:DISL:MBLA:1,2017-07-04T07:30:00Z,30.4367,-88.0117,28.83,1111122 
DISL,ioos:station:DISL:MBLA:1,2017-07-04T08:00:00Z,30.4367,-88.0117,28.8,1111122 
DISL,ioos:station:DISL:MBLA:1,2017-07-04T08:30:00Z,30.4367,-88.0117,28.73,1111122 
DISL,ioos:station:DISL:MBLA:1,2017-07-04T09:00:00Z,30.4367,-88.0117,28.26,1111122 
DISL,ioos:station:DISL:MBLA:1,2017-07-04T09:30:00Z,30.4367,-88.0117,28.19,1111122 
DISL,ioos:station:DISL:MBLA:1,2017-07-04T10:00:00Z,30.4367,-88.0117,27.82,1111122 
DISL,ioos:station:DISL:MBLA:1,2017-07-04T10:30:00Z,30.4367,-88.0117,27.82,1111122 
DISL,ioos:station:DISL:MBLA:1,2017-07-04T11:00:00Z,30.4367,-88.0117,27.85,1111122 
DISL,ioos:station:DISL:MBLA:1,2017-07-04T11:30:00Z,30.4367,-88.0117,27.85,1111122 
DISL,ioos:station:DISL:MBLA:1,2017-07-04T12:00:00Z,30.4367,-88.0117,28.43,1111122 
DISL,ioos:station:DISL:MBLA:1,2017-07-04T12:30:00Z,30.4367,-88.0117,29.82,1111122 
DISL,ioos:station:DISL:MBLA:1,2017-07-04T13:00:00Z,30.4367,-88.0117,30.72,1111122 
DISL,ioos:station:DISL:MBLA:1,2017-07-04T13:30:00Z,30.4367,-88.0117,29.32,1111122 
DISL,ioos:station:DISL:MBLA:1,2017-07-04T14:00:00Z,30.4367,-88.0117,29.8,1111122 
DISL,ioos:station:DISL:MBLA:1,2017-07-04T14:30:00Z,30.4367,-88.0117,29.39,1111122 
DISL,ioos:station:DISL:MBLA:1,2017-07-04T15:00:00Z,30.4367,-88.0117,29.63,1111122 
DISL,ioos:station:DISL:MBLA:1,2017-07-04T15:30:00Z,30.4367,-88.0117,30.4,1111122 
DISL,ioos:station:DISL:MBLA:1,2017-07-04T16:00:00Z,30.4367,-88.0117,28.85,1111122 
DISL,ioos:station:DISL:MBLA:1,2017-07-04T16:30:00Z,30.4367,-88.0117,28.98,1111122 
DISL,ioos:station:DISL:MBLA:1,2017-07-04T17:00:00Z,30.4367,-88.0117,29.19,1111122 
DISL,ioos:station:DISL:MBLA:1,2017-07-04T17:30:00Z,30.4367,-88.0117,29.29,1111122 
DISL,ioos:station:DISL:MBLA:1,2017-07-04T18:00:00Z,30.4367,-88.0117,29.56,1111122 
DISL,ioos:station:DISL:MBLA:1,2017-07-04T18:30:00Z,30.4367,-88.0117,29.73,1111122 
DISL,ioos:station:DISL:MBLA:1,2017-07-04T19:00:00Z,30.4367,-88.0117,29.69,1111122 
DISL,ioos:station:DISL:MBLA:1,2017-07-04T19:30:00Z,30.4367,-88.0117,29.49,1111122 
DISL,ioos:station:DISL:MBLA:1,2017-07-04T20:00:00Z,30.4367,-88.0117,29.56,1111122 
DISL,ioos:station:DISL:MBLA:1,2017-07-04T20:30:00Z,30.4367,-88.0117,29.73,1111122 
DISL,ioos:station:DISL:MBLA:1,2017-07-04T21:00:00Z,30.4367,-88.0117,29.59,1111122 
DISL,ioos:station:DISL:MBLA:1,2017-07-04T21:30:00Z,30.4367,-88.0117,29.66,1111122 
DISL,ioos:station:DISL:MBLA:1,2017-07-04T22:00:00Z,30.4367,-88.0117,29.69,1111122 
DISL,ioos:station:DISL:MBLA:1,2017-07-04T22:30:00Z,30.4367,-88.0117,29.8,1111122 
DISL,ioos:station:DISL:MBLA:1,2017-07-04T23:00:00Z,30.4367,-88.0117,29.9,1111122 
DISL,ioos:station:DISL:MBLA:1,2017-07-04T23:30:00Z,30.4367,-88.0117,30.1,1111122 
DISL,ioos:station:DISL:MBLA:1,2017-07-05T00:00:00Z,30.4367,-88.0117,30.13,1111122 
DISL,ioos:station:DISL:MBLA:1,2017-07-05T00:30:00Z,30.4367,-88.0117,29.76,1111122 
DISL,ioos:station:DISL:MBLA:1,2017-07-05T01:00:00Z,30.4367,-88.0117,29.52,1111122 
DISL,ioos:station:DISL:MBLA:1,2017-07-05T01:30:00Z,30.4367,-88.0117,29.56,1111122 
DISL,ioos:station:DISL:MBLA:1,2017-07-05T02:00:00Z,30.4367,-88.0117,29.36,1111122 
DISL,ioos:station:DISL:MBLA:1,2017-07-05T02:30:00Z,30.4367,-88.0117,29.4,1111122 
DISL,ioos:station:DISL:MBLA:1,2017-07-05T03:00:00Z,30.4367,-88.0117,29.36,1111122 
DISL,ioos:station:DISL:MBLA:1,2017-07-05T03:30:00Z,30.4367,-88.0117,29.33,1111122 
DISL,ioos:station:DISL:MBLA:1,2017-07-05T04:00:00Z,30.4367,-88.0117,29.33,1111122 
DISL,ioos:station:DISL:MBLA:1,2017-07-05T04:30:00Z,30.4367,-88.0117,29.2,1111122 
DISL,ioos:station:DISL:MBLA:1,2017-07-05T05:00:00Z,30.4367,-88.0117,29.1,1111122 
DISL,ioos:station:DISL:MBLA:1,2017-07-05T05:30:00Z,30.4367,-88.0117,29.1,1111122 
DISL,ioos:station:DISL:MBLA:1,2017-07-05T06:00:00Z,30.4367,-88.0117,29.1,1111122 
DISL,ioos:station:DISL:MBLA:1,2017-07-05T06:30:00Z,30.4367,-88.0117,29.0,1111122 
DISL,ioos:station:DISL:MBLA:1,2017-07-05T07:00:00Z,30.4367,-88.0117,29.0,1111122 
DISL,ioos:station:DISL:MBLA:1,2017-07-05T07:30:00Z,30.4367,-88.0117,28.7,1111122 
DISL,ioos:station:DISL:MBLA:1,2017-07-05T08:00:00Z,30.4367,-88.0117,28.83,1111122 
DISL,ioos:station:DISL:MBLA:1,2017-07-05T08:30:00Z,30.4367,-88.0117,28.76,1111122 
DISL,ioos:station:DISL:MBLA:1,2017-07-05T09:00:00Z,30.4367,-88.0117,28.73,1111122 
DISL,ioos:station:DISL:MBLA:1,2017-07-05T09:30:00Z,30.4367,-88.0117,28.73,1111122 
DISL,ioos:station:DISL:MBLA:1,2017-07-05T10:00:00Z,30.4367,-88.0117,28.63,1111122 
DISL,ioos:station:DISL:MBLA:1,2017-07-05T10:30:00Z,30.4367,-88.0117,28.6,1111122 
DISL,ioos:station:DISL:MBLA:1,2017-07-05T11:00:00Z,30.4367,-88.0117,28.63,1111122 
DISL,ioos:station:DISL:MBLA:1,2017-07-05T11:30:00Z,30.4367,-88.0117,28.63,1111122 
DISL,ioos:station:DISL:MBLA:1,2017-07-05T12:00:00Z,30.4367,-88.0117,28.87,1111122 
DISL,ioos:station:DISL:MBLA:1,2017-07-05T12:30:00Z,30.4367,-88.0117,29.17,1111122 
DISL,ioos:station:DISL:MBLA:1,2017-07-05T13:00:00Z,30.4367,-88.0117,29.13,1111122 
DISL,ioos:station:DISL:MBLA:1,2017-07-05T13:30:00Z,30.4367,-88.0117,29.36,1111122 
DISL,ioos:station:DISL:MBLA:1,2017-07-05T14:00:00Z,30.4367,-88.0117,29.42,1111122 
DISL,ioos:station:DISL:MBLA:1,2017-07-05T14:30:00Z,30.4367,-88.0117,29.35,1111122 
DISL,ioos:station:DISL:MBLA:1,2017-07-05T15:00:00Z,30.4367,-88.0117,29.02,1111122 
DISL,ioos:station:DISL:MBLA:1,2017-07-05T15:30:00Z,30.4367,-88.0117,28.98,1111122 
DISL,ioos:station:DISL:MBLA:1,2017-07-05T16:00:00Z,30.4367,-88.0117,29.15,1111122 
DISL,ioos:station:DISL:MBLA:1,2017-07-05T16:30:00Z,30.4367,-88.0117,29.29,1111122 
DISL,ioos:station:DISL:MBLA:1,2017-07-05T17:00:00Z,30.4367,-88.0117,29.32,1111122 
DISL,ioos:station:DISL:MBLA:1,2017-07-05T17:30:00Z,30.4367,-88.0117,29.49,1111122 
DISL,ioos:station:DISL:MBLA:1,2017-07-05T18:00:00Z,30.4367,-88.0117,29.69,1111122 
DISL,ioos:station:DISL:MBLA:1,2017-07-05T18:30:00Z,30.4367,-88.0117,29.69,1111122 
DISL,ioos:station:DISL:MBLA:1,2017-07-05T19:00:00Z,30.4367,-88.0117,29.66,1111122 
DISL,ioos:station:DISL:MBLA:1,2017-07-05T19:30:00Z,30.4367,-88.0117,29.66,1111122 
DISL,ioos:station:DISL:MBLA:1,2017-07-05T20:00:00Z,30.4367,-88.0117,29.83,1111122 
DISL,ioos:station:DISL:MBLA:1,2017-07-05T20:30:00Z,30.4367,-88.0117,29.86,1111122 
DISL,ioos:station:DISL:MBLA:1,2017-07-05T21:00:00Z,30.4367,-88.0117,29.83,1111122 
DISL,ioos:station:DISL:MBLA:1,2017-07-05T21:30:00Z,30.4367,-88.0117,29.93,1111122 
DISL,ioos:station:DISL:MBLA:1,2017-07-05T22:00:00Z,30.4367,-88.0117,30.03,1111122 
DISL,ioos:station:DISL:MBLA:1,2017-07-05T22:30:00Z,30.4367,-88.0117,29.96,1111122 
DISL,ioos:station:DISL:MBLA:1,2017-07-05T23:00:00Z,30.4367,-88.0117,30.03,1111122 
DISL,ioos:station:DISL:MBLA:1,2017-07-05T23:30:00Z,30.4367,-88.0117,29.83,1111122 
DISL,ioos:station:DISL:MBLA:1,2017-07-06T00:00:00Z,30.4367,-88.0117,29.66,1111122 
DISL,ioos:station:DISL:MBLA:1,2017-07-06T00:30:00Z,30.4367,-88.0117,29.52,1111122 
DISL,ioos:station:DISL:MBLA:1,2017-07-06T01:00:00Z,30.4367,-88.0117,29.42,1111122 
DISL,ioos:station:DISL:MBLA:1,2017-07-06T01:30:00Z,30.4367,-88.0117,29.42,1111122 
DISL,ioos:station:DISL:MBLA:1,2017-07-06T02:00:00Z,30.4367,-88.0117,29.46,1111122 
DISL,ioos:station:DISL:MBLA:1,2017-07-06T02:30:00Z,30.4367,-88.0117,29.37,1111122 
DISL,ioos:station:DISL:MBLA:1,2017-07-06T03:00:00Z,30.4367,-88.0117,29.33,1111122 
DISL,ioos:station:DISL:MBLA:1,2017-07-06T03:30:00Z,30.4367,-88.0117,29.26,1111122 
DISL,ioos:station:DISL:MBLA:1,2017-07-06T04:00:00Z,30.4367,-88.0117,29.2,1111122 
DISL,ioos:station:DISL:MBLA:1,2017-07-06T04:30:00Z,30.4367,-88.0117,29.27,1111122 
DISL,ioos:station:DISL:MBLA:1,2017-07-06T05:00:00Z,30.4367,-88.0117,29.33,1111122 
DISL,ioos:station:DISL:MBLA:1,2017-07-06T05:30:00Z,30.4367,-88.0117,29.23,1111122 
DISL,ioos:station:DISL:MBLA:1,2017-07-06T06:00:00Z,30.4367,-88.0117,29.27,1111122 
DISL,ioos:station:DISL:MBLA:1,2017-07-06T06:30:00Z,30.4367,-88.0117,29.07,1111122 
DISL,ioos:station:DISL:MBLA:1,2017-07-06T07:00:00Z,30.4367,-88.0117,29.07,1111122 
DISL,ioos:station:DISL:MBLA:1,2017-07-06T07:30:00Z,30.4367,-88.0117,28.9,1111122 
DISL,ioos:station:DISL:MBLA:1,2017-07-06T08:00:00Z,30.4367,-88.0117,28.9,1111122 
DISL,ioos:station:DISL:MBLA:1,2017-07-06T08:30:00Z,30.4367,-88.0117,29.0,1111122 
DISL,ioos:station:DISL:MBLA:1,2017-07-06T09:00:00Z,30.4367,-88.0117,28.9,1111122 
DISL,ioos:station:DISL:MBLA:1,2017-07-06T09:30:00Z,30.4367,-88.0117,28.94,1111122 
DISL,ioos:station:DISL:MBLA:1,2017-07-06T10:00:00Z,30.4367,-88.0117,28.87,1111122 
DISL,ioos:station:DISL:MBLA:1,2017-07-06T10:30:00Z,30.4367,-88.0117,28.63,1111122 
DISL,ioos:station:DISL:MBLA:1,2017-07-06T11:00:00Z,30.4367,-88.0117,28.67,1111122 
DISL,ioos:station:DISL:MBLA:1,2017-07-06T11:30:00Z,30.4367,-88.0117,28.53,1111122 
DISL,ioos:station:DISL:MBLA:1,2017-07-06T12:00:00Z,30.4367,-88.0117,30.29,1111122 
DISL,ioos:station:DISL:MBLA:1,2017-07-06T12:30:00Z,30.4367,-88.0117,30.72,1111122 
DISL,ioos:station:DISL:MBLA:1,2017-07-06T13:00:00Z,30.4367,-88.0117,31.73,1111122 
DISL,ioos:station:DISL:MBLA:1,2017-07-06T13:30:00Z,30.4367,-88.0117,31.08,1111122 
DISL,ioos:station:DISL:MBLA:1,2017-07-06T14:00:00Z,30.4367,-88.0117,31.05,1111122 
DISL,ioos:station:DISL:MBLA:1,2017-07-06T14:30:00Z,30.4367,-88.0117,29.83,1111122 
DISL,ioos:station:DISL:MBLA:1,2017-07-06T15:00:00Z,30.4367,-88.0117,27.46,1111122 
DISL,ioos:station:DISL:MBLA:1,2017-07-06T15:30:00Z,30.4367,-88.0117,30.37,1111122 
DISL,ioos:station:DISL:MBLA:1,2017-07-06T16:00:00Z,30.4367,-88.0117,30.78,1111122 
DISL,ioos:station:DISL:MBLA:1,2017-07-06T16:30:00Z,30.4367,-88.0117,29.69,1111122 
DISL,ioos:station:DISL:MBLA:1,2017-07-06T17:00:00Z,30.4367,-88.0117,29.49,1111122 
DISL,ioos:station:DISL:MBLA:1,2017-07-06T17:30:00Z,30.4367,-88.0117,29.46,1111122 
DISL,ioos:station:DISL:MBLA:1,2017-07-06T18:00:00Z,30.4367,-88.0117,29.69,1111122 
DISL,ioos:station:DISL:MBLA:1,2017-07-06T18:30:00Z,30.4367,-88.0117,29.83,1111122 
DISL,ioos:station:DISL:MBLA:1,2017-07-06T19:00:00Z,30.4367,-88.0117,30.0,1111122 
DISL,ioos:station:DISL:MBLA:1,2017-07-06T19:30:00Z,30.4367,-88.0117,30.13,1111122 
DISL,ioos:station:DISL:MBLA:1,2017-07-06T20:00:00Z,30.4367,-88.0117,30.03,1111122 
DISL,ioos:station:DISL:MBLA:1,2017-07-06T20:30:00Z,30.4367,-88.0117,30.4,1111122 
DISL,ioos:station:DISL:MBLA:1,2017-07-06T21:00:00Z,30.4367,-88.0117,30.0,1111122 
DISL,ioos:station:DISL:MBLA:1,2017-07-06T21:30:00Z,30.4367,-88.0117,31.15,1111122 
DISL,ioos:station:DISL:MBLA:1,2017-07-06T22:00:00Z,30.4367,-88.0117,31.11,1111122 
DISL,ioos:station:DISL:MBLA:1,2017-07-06T22:30:00Z,30.4367,-88.0117,31.0,1111122 
DISL,ioos:station:DISL:MBLA:1,2017-07-06T23:00:00Z,30.4367,-88.0117,30.66,1111122 
DISL,ioos:station:DISL:MBLA:1,2017-07-06T23:30:00Z,30.4367,-88.0117,30.5,1111122 